Voltar ao catálogo

SPACEMOBILE-005

AtivoComunicaçõesVLEO
NORAD 61046·PAYLOAD·🇺🇸 United States

Lançado Sep 12, 2024 de Cape Canaveral Space Force Station

Loading…

Próximas Passagens (próximas 24 horas)

TLE

AtualizadoSource: CelesTrak SupGP

Época: Sep 15, 2026, 05:13 UTC

1 61046C 24163B   26258.21799052 -.00019529  00000+0 -88289-3 0  2584
2 61046  52.9735 255.4857 0009171  28.8178 198.9914 15.20380850    12

Acompanhe SPACEMOBILE-005 em tempo real com AllMySat

Download on the App Store